Le nostre stazioni meteo in Italia

Pubblicità
Il mio iltempo24.it
Kinlochewe, Gran Bretagna (99092): Temperatura & dewpoint: 14.06.2019 23:00:00 - 20.06.2019 23:00:00 (BST)Kinlochewe, Gran Bretagna (99092): Temperatura -20cm: 14.06.2019 23:00:00 - 20.06.2019 23:00:00 (BST)Kinlochewe, Gran Bretagna (99092): precipitazioni: 14.06.2019 23:00:00 - 20.06.2019 23:00:00 (BST)
Data & Tempo tt [°C] td [°C] tt -20cm [°C] rr [mm]
20.06.2019 23:00:00 - - - -
20.06.2019 22:00:00 8,4 6,6 - 1,8
20.06.2019 21:00:00 9,1 7,9 - 6,4
20.06.2019 20:00:00 10,3 8,7 - 0,4
20.06.2019 19:00:00 12,7 8,5 - 0,2
20.06.2019 18:00:00 13,4 6,5 - 0,0
20.06.2019 17:00:00 14,3 6,3 - 0,0
20.06.2019 16:00:00 14,5 7,5 - 0,0
20.06.2019 15:00:00 15,1 8,7 - 0,2
20.06.2019 14:00:00 13,7 8,0 - 0,0
20.06.2019 13:00:00 13,5 9,2 - 0,2
20.06.2019 12:00:00 10,9 9,0 - 0,8
20.06.2019 11:00:00 11,0 8,6 - 0,6
20.06.2019 10:00:00 10,1 8,6 12,2 0,2
20.06.2019 09:00:00 10,3 8,1 - 0,6
20.06.2019 08:00:00 11,1 7,8 - 0,0
20.06.2019 07:00:00 10,2 7,4 - 0,2
20.06.2019 06:00:00 9,0 7,1 - 0,0
20.06.2019 05:00:00 8,0 7,4 - 0,0
20.06.2019 04:00:00 8,4 8,0 - 0,4
20.06.2019 03:00:00 9,7 7,9 - 0,0
20.06.2019 02:00:00 9,6 7,6 - 0,0
20.06.2019 01:00:00 8,0 7,3 - 0,0
20.06.2019 00:00:00 9,2 7,4 - 0,0
19.06.2019 23:00:00 10,4 8,1 - 0,0
19.06.2019 22:00:00 10,7 8,2 - 0,0
19.06.2019 21:00:00 11,6 9,0 - 0,0
19.06.2019 20:00:00 12,8 7,5 - 0,0
19.06.2019 19:00:00 13,5 5,7 - 0,0
19.06.2019 18:00:00 15,1 7,4 - 0,0
19.06.2019 17:00:00 16,0 9,4 - 0,0
19.06.2019 16:00:00 12,5 8,4 - 0,2
19.06.2019 15:00:00 15,7 8,7 - 0,0
19.06.2019 14:00:00 13,3 10,6 - 0,8
19.06.2019 13:00:00 14,9 10,4 - 0,2
19.06.2019 12:00:00 12,8 10,0 - 0,2
19.06.2019 11:00:00 12,1 10,1 - 0,2
19.06.2019 10:00:00 11,7 10,0 11,9 0,0
19.06.2019 09:00:00 11,6 9,7 - 0,0
19.06.2019 08:00:00 11,3 9,5 - 0,0
19.06.2019 07:00:00 11,2 9,6 - 0,2
19.06.2019 06:00:00 10,8 9,7 - 0,0
19.06.2019 05:00:00 10,6 9,8 - 0,0
19.06.2019 04:00:00 10,8 9,5 - 0,0
19.06.2019 03:00:00 11,6 8,8 - 0,0
19.06.2019 02:00:00 11,1 9,2 - 0,0
19.06.2019 01:00:00 11,5 9,8 - 0,4
19.06.2019 00:00:00 11,1 9,8 - 0,0
18.06.2019 23:00:00 11,6 9,6 - 0,2
18.06.2019 22:00:00 12,3 9,3 - 0,0
18.06.2019 21:00:00 12,4 9,2 - 0,0
18.06.2019 20:00:00 12,9 9,5 - 0,0
18.06.2019 19:00:00 13,0 9,3 - 0,0
18.06.2019 18:00:00 12,8 10,2 - 0,0
18.06.2019 17:00:00 12,8 11,7 - 0,6
18.06.2019 16:00:00 12,0 10,8 - 0,8
18.06.2019 15:00:00 11,7 10,9 - 1,0
18.06.2019 14:00:00 11,7 10,2 - 1,8
18.06.2019 13:00:00 11,7 10,1 - 0,4
18.06.2019 12:00:00 12,1 10,5 - 0,2
18.06.2019 11:00:00 11,7 11,0 - 0,8
18.06.2019 10:00:00 11,4 10,7 11,9 1,0
18.06.2019 09:00:00 10,9 9,9 - 4,6
18.06.2019 08:00:00 10,4 9,4 - 1,0
18.06.2019 07:00:00 10,5 9,3 - 1,2
18.06.2019 06:00:00 10,7 8,9 - 1,6
18.06.2019 05:00:00 11,6 8,3 - 0,0
18.06.2019 04:00:00 11,4 9,0 - 0,4
18.06.2019 03:00:00 11,3 8,1 - 0,0
18.06.2019 02:00:00 12,0 7,8 - 0,0
18.06.2019 01:00:00 11,7 8,0 - 0,0
18.06.2019 00:00:00 12,0 8,4 - 0,0
17.06.2019 23:00:00 11,7 8,3 - 0,0
17.06.2019 22:00:00 11,9 8,5 - 0,0
17.06.2019 21:00:00 12,3 9,0 - 0,2
17.06.2019 20:00:00 12,3 9,3 - 0,0
17.06.2019 19:00:00 11,6 10,0 - 0,0
17.06.2019 18:00:00 11,5 10,4 - 1,8
17.06.2019 17:00:00 11,9 10,8 - 0,0
17.06.2019 16:00:00 11,7 10,6 - 2,0
17.06.2019 15:00:00 12,5 10,9 - 0,8
17.06.2019 14:00:00 13,4 11,3 - 0,6
17.06.2019 13:00:00 13,3 9,3 - 0,2
17.06.2019 12:00:00 13,5 9,2 - 0,0
17.06.2019 11:00:00 13,1 9,9 - 0,4
17.06.2019 10:00:00 12,2 9,9 12,0 0,4
17.06.2019 09:00:00 11,0 10,3 - 0,2
17.06.2019 08:00:00 10,8 10,1 - 0,2
17.06.2019 07:00:00 9,8 9,5 - 0,2
17.06.2019 06:00:00 9,3 9,2 - 0,2
17.06.2019 05:00:00 9,0 8,8 - 0,2
17.06.2019 04:00:00 8,7 8,6 - 0,4
17.06.2019 03:00:00 8,5 8,2 - 0,8
17.06.2019 02:00:00 8,6 7,4 - 0,0
17.06.2019 01:00:00 8,7 6,8 - 0,0
17.06.2019 00:00:00 8,8 7,1 - 0,0
16.06.2019 23:00:00 9,7 7,5 - 0,0
16.06.2019 22:00:00 9,8 7,3 - 0,0
16.06.2019 21:00:00 12,2 7,3 - 0,0
16.06.2019 20:00:00 13,5 8,1 - 0,0
16.06.2019 19:00:00 13,0 7,8 - 0,0
16.06.2019 18:00:00 11,9 9,0 - 0,2
16.06.2019 17:00:00 12,3 9,4 - 0,2
16.06.2019 16:00:00 16,4 6,2 - 0,0
16.06.2019 15:00:00 16,9 5,5 - 0,0
16.06.2019 14:00:00 15,3 7,0 - 0,0
16.06.2019 13:00:00 14,0 8,0 - 0,0
16.06.2019 12:00:00 12,6 9,0 - 0,2
16.06.2019 11:00:00 12,8 8,3 - 0,0
16.06.2019 10:00:00 12,5 8,8 12,0 0,0
16.06.2019 09:00:00 11,6 7,8 - 0,0
16.06.2019 08:00:00 11,6 8,1 - 0,0
16.06.2019 07:00:00 10,6 9,4 - 0,2
16.06.2019 06:00:00 10,0 9,5 - 0,0
16.06.2019 05:00:00 9,4 8,8 - 0,0
16.06.2019 04:00:00 10,5 9,5 - 0,0
16.06.2019 03:00:00 10,7 10,3 - 0,2
16.06.2019 02:00:00 10,5 10,3 - 0,0
16.06.2019 01:00:00 10,3 10,2 - 0,0
16.06.2019 00:00:00 10,4 10,3 - 0,0
15.06.2019 23:00:00 11,0 10,5 - 0,2
15.06.2019 22:00:00 12,3 10,6 - 0,0
15.06.2019 21:00:00 13,4 10,4 - 0,0
15.06.2019 20:00:00 14,4 11,7 - 0,2
15.06.2019 19:00:00 15,6 11,4 - 0,0
15.06.2019 18:00:00 15,0 10,5 - 0,0
15.06.2019 17:00:00 15,1 11,0 - 0,0
15.06.2019 16:00:00 14,3 11,5 - 0,2
15.06.2019 15:00:00 15,6 9,0 - 0,0
15.06.2019 14:00:00 16,8 9,0 - 0,0
15.06.2019 13:00:00 16,5 9,6 - 0,0
15.06.2019 12:00:00 16,0 9,8 - 0,0
15.06.2019 11:00:00 15,2 9,4 - 0,0
15.06.2019 10:00:00 14,5 8,7 12,0 0,0
15.06.2019 09:00:00 13,9 8,1 - 0,0
15.06.2019 08:00:00 13,2 7,6 - 0,0
15.06.2019 07:00:00 12,2 7,4 - 0,0
15.06.2019 06:00:00 11,8 7,1 - 0,0
15.06.2019 05:00:00 11,6 7,0 - 0,0
15.06.2019 04:00:00 11,9 6,9 - 0,0
15.06.2019 03:00:00 10,8 6,7 - 0,0
15.06.2019 02:00:00 11,2 6,3 - 0,0
15.06.2019 01:00:00 11,3 5,9 - 0,0
15.06.2019 00:00:00 9,0 6,4 - 0,0
14.06.2019 23:00:00 8,6 6,2 - 0,0

tt = Temperatura
td = dewpoint
tt -20cm = Temperatura -20cm
rr = precipitazioni

Stazioni seguenti

WeatherPro
AMSI
MeteoEarth